Information on these data can be found in provided Readme document
Contact Info: Zachary Fasnacht (zachary.fasnacht@ssaihq.com); Nickolay Krotkov (nickolay.a.krotkov@nasa.gov); Lok Lamsal (lok.lamsal@nasa.gov)

FillValue: -999.
ScaleFactor: 1e15
Units: molecules/cm^2

Date(yyyy-mm-dd),City,Country,LonCenter,LatCenter,BoundingCoordinates,Median,Q1,Q3,Mean,Baseline_Median,Baseline_Q1,Baseline_Q3,Baseline_Mean,NumGoodSamples,NumTotalSamples
2015-01-01,Kinshasa,Congo,15.2833,-4.3001,[14.7833 -4.8001 15.7833 -3.8000999999999996],0.444,0.153,0.697,0.503,0.474,0.09,0.857,0.528,101.0,543.0
2015-01-02,Kinshasa,Congo,15.2833,-4.3001,[14.7833 -4.8001 15.7833 -3.8000999999999996],0.471,0.16,0.767,0.549,0.48,0.093,0.861,0.543,127.0,552.0
2015-01-03,Kinshasa,Congo,15.2833,-4.3001,[14.7833 -4.8001 15.7833 -3.8000999999999996],0.4,0.07,0.714,0.466,0.461,0.063,0.834,0.508,145.0,529.0
2015-01-04,Kinshasa,Congo,15.2833,-4.3001,[14.7833 -4.8001 15.7833 -3.8000999999999996],0.4,0.07,0.714,0.466,0.487,0.077,0.859,0.523,145.0,551.0
2015-01-05,Kinshasa,Congo,15.2833,-4.3001,[14.7833 -4.8001 15.7833 -3.8000999999999996],0.355,0.078,0.687,0.435,0.483,0.076,0.855,0.515,155.0,526.0
2015-01-06,Kinshasa,Congo,15.2833,-4.3001,[14.7833 -4.8001 15.7833 -3.8000999999999996],0.355,0.089,0.697,0.442,0.468,0.071,0.832,0.489,153.0,558.0
2015-01-07,Kinshasa,Congo,15.2833,-4.3001,[14.7833 -4.8001 15.7833 -3.8000999999999996],0.355,0.078,0.619,0.402,0.464,0.068,0.817,0.483,171.0,535.0
2015-01-08,Kinshasa,Congo,15.2833,-4.3001,[14.7833 -4.8001 15.7833 -3.8000999999999996],0.357,0.078,0.703,0.445,0.462,0.068,0.828,0.49,183.0,549.0
2015-01-09,Kinshasa,Congo,15.2833,-4.3001,[14.7833 -4.8001 15.7833 -3.8000999999999996],0.356,0.069,0.703,0.424,0.443,0.065,0.829,0.481,187.0,547.0
2015-01-10,Kinshasa,Congo,15.2833,-4.3001,[14.7833 -4.8001 15.7833 -3.8000999999999996],0.356,0.069,0.703,0.424,0.439,0.053,0.835,0.479,187.0,505.0
2015-01-11,Kinshasa,Congo,15.2833,-4.3001,[14.7833 -4.8001 15.7833 -3.8000999999999996],0.357,0.069,0.703,0.423,0.435,0.052,0.835,0.472,189.0,522.0
2015-01-12,Kinshasa,Congo,15.2833,-4.3001,[14.7833 -4.8001 15.7833 -3.8000999999999996],0.359,0.068,0.86,0.454,0.439,0.051,0.863,0.479,199.0,494.0
2015-01-13,Kinshasa,Congo,15.2833,-4.3001,[14.7833 -4.8001 15.7833 -3.8000999999999996],0.353,-0.006,0.87,0.433,0.444,0.043,0.877,0.488,175.0,514.0
2015-01-14,Kinshasa,Congo,15.2833,-4.3001,[14.7833 -4.8001 15.7833 -3.8000999999999996],0.375,0.06,0.863,0.456,0.439,0.056,0.869,0.478,192.0,498.0
2015-01-15,Kinshasa,Congo,15.2833,-4.3001,[14.7833 -4.8001 15.7833 -3.8000999999999996],0.457,0.068,0.877,0.498,0.454,0.043,0.87,0.474,202.0,526.0
2015-01-16,Kinshasa,Congo,15.2833,-4.3001,[14.7833 -4.8001 15.7833 -3.8000999999999996],0.457,0.069,0.873,0.486,0.449,0.013,0.872,0.467,174.0,508.0
2015-01-17,Kinshasa,Congo,15.2833,-4.3001,[14.7833 -4.8001 15.7833 -3.8000999999999996],0.394,0.014,0.873,0.468,0.433,0.026,0.865,0.467,169.0,510.0
2015-01-18,Kinshasa,Congo,15.2833,-4.3001,[14.7833 -4.8001 15.7833 -3.8000999999999996],0.482,0.089,0.877,0.528,0.449,0.038,0.885,0.485,151.0,519.0
2015-01-19,Kinshasa,Congo,15.2833,-4.3001,[14.7833 -4.8001 15.7833 -3.8000999999999996],0.386,-0.042,0.87,0.437,0.397,-0.028,0.828,0.428,171.0,496.0
2015-01-20,Kinshasa,Congo,15.2833,-4.3001,[14.7833 -4.8001 15.7833 -3.8000999999999996],0.457,-0.042,0.875,0.462,0.394,-0.027,0.807,0.43,161.0,515.0
2015-01-21,Kinshasa,Congo,15.2833,-4.3001,[14.7833 -4.8001 15.7833 -3.8000999999999996],0.457,-0.042,0.875,0.462,0.365,-0.056,0.804,0.414,161.0,490.0
2015-01-22,Kinshasa,Congo,15.2833,-4.3001,[14.7833 -4.8001 15.7833 -3.8000999999999996],0.527,-0.044,0.986,0.516,0.401,-0.026,0.822,0.438,141.0,525.0
2015-01-23,Kinshasa,Congo,15.2833,-4.3001,[14.7833 -4.8001 15.7833 -3.8000999999999996],0.482,-0.05,0.873,0.451,0.381,-0.047,0.807,0.421,129.0,502.0
2015-01-24,Kinshasa,Congo,15.2833,-4.3001,[14.7833 -4.8001 15.7833 -3.8000999999999996],0.467,-0.05,0.873,0.426,0.389,-0.053,0.806,0.415,127.0,516.0
2015-01-25,Kinshasa,Congo,15.2833,-4.3001,[14.7833 -4.8001 15.7833 -3.8000999999999996],0.467,-0.05,0.873,0.433,0.387,-0.039,0.786,0.413,145.0,545.0
2015-01-26,Kinshasa,Congo,15.2833,-4.3001,[14.7833 -4.8001 15.7833 -3.8000999999999996],0.482,-0.042,0.873,0.448,0.397,-0.039,0.801,0.422,149.0,533.0
2015-01-27,Kinshasa,Congo,15.2833,-4.3001,[14.7833 -4.8001 15.7833 -3.8000999999999996],0.467,-0.05,0.824,0.405,0.395,-0.044,0.802,0.418,139.0,546.0
2015-01-28,Kinshasa,Congo,15.2833,-4.3001,[14.7833 -4.8001 15.7833 -3.8000999999999996],0.455,0.05,0.819,0.413,0.387,-0.031,0.773,0.399,148.0,520.0
2015-01-29,Kinshasa,Congo,15.2833,-4.3001,[14.7833 -4.8001 15.7833 -3.8000999999999996],0.308,-0.157,0.804,0.357,0.374,-0.052,0.776,0.407,123.0,541.0
2015-01-30,Kinshasa,Congo,15.2833,-4.3001,[14.7833 -4.8001 15.7833 -3.8000999999999996],0.301,-0.185,0.768,0.319,0.389,-0.023,0.814,0.429,103.0,524.0
2015-01-31,Kinshasa,Congo,15.2833,-4.3001,[14.7833 -4.8001 15.7833 -3.8000999999999996],0.301,-0.185,0.8,0.328,0.404,-0.037,0.825,0.433,109.0,554.0
2015-02-01,Kinshasa,Congo,15.2833,-4.3001,[14.7833 -4.8001 15.7833 -3.8000999999999996],0.297,-0.064,0.739,0.292,0.404,-0.03,0.807,0.419,106.0,536.0
2015-02-02,Kinshasa,Congo,15.2833,-4.3001,[14.7833 -4.8001 15.7833 -3.8000999999999996],0.297,-0.064,0.739,0.292,0.412,-0.014,0.793,0.421,106.0,540.0
2015-02-03,Kinshasa,Congo,15.2833,-4.3001,[14.7833 -4.8001 15.7833 -3.8000999999999996],0.407,0.02,0.804,0.409,0.461,0.003,0.821,0.457,93.0,551.0
2015-02-04,Kinshasa,Congo,15.2833,-4.3001,[14.7833 -4.8001 15.7833 -3.8000999999999996],0.407,0.02,0.824,0.432,0.427,0.044,0.827,0.455,112.0,530.0
2015-02-05,Kinshasa,Congo,15.2833,-4.3001,[14.7833 -4.8001 15.7833 -3.8000999999999996],0.407,0.02,0.824,0.432,0.444,0.08,0.834,0.473,112.0,551.0
2015-02-06,Kinshasa,Congo,15.2833,-4.3001,[14.7833 -4.8001 15.7833 -3.8000999999999996],0.407,0.02,0.824,0.432,0.453,0.051,0.832,0.457,112.0,524.0
2015-02-07,Kinshasa,Congo,15.2833,-4.3001,[14.7833 -4.8001 15.7833 -3.8000999999999996],0.403,0.02,0.824,0.438,0.442,0.067,0.771,0.446,94.0,556.0
2015-02-08,Kinshasa,Congo,15.2833,-4.3001,[14.7833 -4.8001 15.7833 -3.8000999999999996],0.372,0.02,0.787,0.402,0.418,0.065,0.774,0.451,104.0,534.0
2015-02-09,Kinshasa,Congo,15.2833,-4.3001,[14.7833 -4.8001 15.7833 -3.8000999999999996],0.373,0.02,0.768,0.426,0.432,0.067,0.778,0.455,113.0,548.0
2015-02-10,Kinshasa,Congo,15.2833,-4.3001,[14.7833 -4.8001 15.7833 -3.8000999999999996],0.324,-0.011,0.702,0.381,0.401,0.056,0.761,0.437,117.0,548.0
2015-02-11,Kinshasa,Congo,15.2833,-4.3001,[14.7833 -4.8001 15.7833 -3.8000999999999996],0.324,-0.011,0.702,0.381,0.388,0.076,0.758,0.431,117.0,509.0
2015-02-12,Kinshasa,Congo,15.2833,-4.3001,[14.7833 -4.8001 15.7833 -3.8000999999999996],0.324,-0.022,0.691,0.368,0.394,0.08,0.774,0.442,114.0,524.0
2015-02-13,Kinshasa,Congo,15.2833,-4.3001,[14.7833 -4.8001 15.7833 -3.8000999999999996],0.324,-0.022,0.691,0.368,0.405,0.069,0.757,0.44,114.0,493.0
2015-02-14,Kinshasa,Congo,15.2833,-4.3001,[14.7833 -4.8001 15.7833 -3.8000999999999996],0.324,-0.036,0.702,0.367,0.384,0.054,0.765,0.424,112.0,515.0
2015-02-15,Kinshasa,Congo,15.2833,-4.3001,[14.7833 -4.8001 15.7833 -3.8000999999999996],0.324,-0.036,0.691,0.36,0.371,0.048,0.74,0.419,106.0,497.0
2015-02-16,Kinshasa,Congo,15.2833,-4.3001,[14.7833 -4.8001 15.7833 -3.8000999999999996],0.324,-0.047,0.718,0.366,0.37,0.051,0.727,0.41,100.0,525.0
2015-02-17,Kinshasa,Congo,15.2833,-4.3001,[14.7833 -4.8001 15.7833 -3.8000999999999996],0.324,-0.056,0.731,0.369,0.361,0.044,0.711,0.394,103.0,508.0
2015-02-18,Kinshasa,Congo,15.2833,-4.3001,[14.7833 -4.8001 15.7833 -3.8000999999999996],0.373,-0.056,0.745,0.384,0.381,0.053,0.725,0.405,104.0,511.0
2015-02-19,Kinshasa,Congo,15.2833,-4.3001,[14.7833 -4.8001 15.7833 -3.8000999999999996],0.324,-0.085,0.745,0.412,0.389,0.046,0.759,0.431,110.0,519.0
2015-02-20,Kinshasa,Congo,15.2833,-4.3001,[14.7833 -4.8001 15.7833 -3.8000999999999996],0.324,-0.085,0.745,0.412,0.422,0.094,0.775,0.454,110.0,496.0
2015-02-21,Kinshasa,Congo,15.2833,-4.3001,[14.7833 -4.8001 15.7833 -3.8000999999999996],0.324,-0.085,0.745,0.412,0.417,0.098,0.768,0.452,110.0,516.0
2015-02-22,Kinshasa,Congo,15.2833,-4.3001,[14.7833 -4.8001 15.7833 -3.8000999999999996],0.306,-0.012,0.599,0.367,0.433,0.109,0.754,0.456,132.0,490.0
2015-02-23,Kinshasa,Congo,15.2833,-4.3001,[14.7833 -4.8001 15.7833 -3.8000999999999996],0.378,0.039,0.657,0.426,0.434,0.121,0.774,0.458,113.0,523.0
2015-02-24,Kinshasa,Congo,15.2833,-4.3001,[14.7833 -4.8001 15.7833 -3.8000999999999996],0.334,-0.032,0.58,0.364,0.419,0.113,0.757,0.45,102.0,501.0
2015-02-25,Kinshasa,Congo,15.2833,-4.3001,[14.7833 -4.8001 15.7833 -3.8000999999999996],0.372,0.024,0.639,0.412,0.463,0.128,0.83,0.488,124.0,515.0
2015-02-26,Kinshasa,Congo,15.2833,-4.3001,[14.7833 -4.8001 15.7833 -3.8000999999999996],0.355,-0.012,0.629,0.399,0.453,0.086,0.812,0.473,132.0,544.0
2015-02-27,Kinshasa,Congo,15.2833,-4.3001,[14.7833 -4.8001 15.7833 -3.8000999999999996],0.355,-0.012,0.629,0.401,0.439,0.092,0.817,0.482,126.0,531.0
2015-02-28,Kinshasa,Congo,15.2833,-4.3001,[14.7833 -4.8001 15.7833 -3.8000999999999996],0.355,-0.012,0.639,0.416,0.42,0.059,0.816,0.476,143.0,550.0
2015-03-01,Kinshasa,Congo,15.2833,-4.3001,[14.7833 -4.8001 15.7833 -3.8000999999999996],0.406,0.024,0.648,0.425,0.431,0.068,0.805,0.473,153.0,521.0
2015-03-02,Kinshasa,Congo,15.2833,-4.3001,[14.7833 -4.8001 15.7833 -3.8000999999999996],0.406,0.024,0.648,0.425,0.418,0.066,0.811,0.466,153.0,543.0
2015-03-03,Kinshasa,Congo,15.2833,-4.3001,[14.7833 -4.8001 15.7833 -3.8000999999999996],0.406,0.024,0.648,0.428,0.421,0.071,0.825,0.476,141.0,527.0
2015-03-04,Kinshasa,Congo,15.2833,-4.3001,[14.7833 -4.8001 15.7833 -3.8000999999999996],0.406,0.024,0.639,0.427,0.449,0.093,0.84,0.492,139.0,556.0
2015-03-05,Kinshasa,Congo,15.2833,-4.3001,[14.7833 -4.8001 15.7833 -3.8000999999999996],0.406,0.039,0.655,0.429,0.439,0.096,0.83,0.49,151.0,537.0
2015-03-06,Kinshasa,Congo,15.2833,-4.3001,[14.7833 -4.8001 15.7833 -3.8000999999999996],0.42,0.106,0.703,0.442,0.441,0.113,0.828,0.496,155.0,541.0
2015-03-07,Kinshasa,Congo,15.2833,-4.3001,[14.7833 -4.8001 15.7833 -3.8000999999999996],0.429,0.106,0.707,0.47,0.428,0.101,0.853,0.491,168.0,551.0
2015-03-08,Kinshasa,Congo,15.2833,-4.3001,[14.7833 -4.8001 15.7833 -3.8000999999999996],0.435,0.124,0.746,0.477,0.421,0.097,0.836,0.48,172.0,529.0
2015-03-09,Kinshasa,Congo,15.2833,-4.3001,[14.7833 -4.8001 15.7833 -3.8000999999999996],0.466,0.142,0.82,0.532,0.453,0.114,0.877,0.513,150.0,552.0
2015-03-10,Kinshasa,Congo,15.2833,-4.3001,[14.7833 -4.8001 15.7833 -3.8000999999999996],0.466,0.142,0.819,0.52,0.453,0.106,0.891,0.516,158.0,526.0
2015-03-11,Kinshasa,Congo,15.2833,-4.3001,[14.7833 -4.8001 15.7833 -3.8000999999999996],0.486,0.194,0.853,0.559,0.457,0.105,0.9,0.518,142.0,559.0
2015-03-12,Kinshasa,Congo,15.2833,-4.3001,[14.7833 -4.8001 15.7833 -3.8000999999999996],0.486,0.194,0.853,0.566,0.464,0.103,0.892,0.527,110.0,535.0
2015-03-13,Kinshasa,Congo,15.2833,-4.3001,[14.7833 -4.8001 15.7833 -3.8000999999999996],0.541,0.244,0.955,0.631,0.517,0.126,0.931,0.562,128.0,548.0
2015-03-14,Kinshasa,Congo,15.2833,-4.3001,[14.7833 -4.8001 15.7833 -3.8000999999999996],0.514,0.194,0.955,0.619,0.537,0.149,0.964,0.569,130.0,549.0
2015-03-15,Kinshasa,Congo,15.2833,-4.3001,[14.7833 -4.8001 15.7833 -3.8000999999999996],0.514,0.244,0.955,0.62,0.53,0.171,0.915,0.563,113.0,507.0
2015-03-16,Kinshasa,Congo,15.2833,-4.3001,[14.7833 -4.8001 15.7833 -3.8000999999999996],0.601,0.194,1.082,0.656,0.559,0.163,0.931,0.576,121.0,525.0
2015-03-17,Kinshasa,Congo,15.2833,-4.3001,[14.7833 -4.8001 15.7833 -3.8000999999999996],0.626,0.194,1.085,0.659,0.597,0.206,0.955,0.599,141.0,493.0
2015-03-18,Kinshasa,Congo,15.2833,-4.3001,[14.7833 -4.8001 15.7833 -3.8000999999999996],0.626,0.194,1.085,0.659,0.587,0.19,0.944,0.596,141.0,513.0
2015-03-19,Kinshasa,Congo,15.2833,-4.3001,[14.7833 -4.8001 15.7833 -3.8000999999999996],0.626,0.194,1.085,0.66,0.565,0.167,0.951,0.581,140.0,496.0
2015-03-20,Kinshasa,Congo,15.2833,-4.3001,[14.7833 -4.8001 15.7833 -3.8000999999999996],0.687,0.239,1.161,0.717,0.596,0.176,0.946,0.594,136.0,525.0
2015-03-21,Kinshasa,Congo,15.2833,-4.3001,[14.7833 -4.8001 15.7833 -3.8000999999999996],0.677,0.166,1.161,0.704,0.593,0.143,0.94,0.581,107.0,507.0
2015-03-22,Kinshasa,Congo,15.2833,-4.3001,[14.7833 -4.8001 15.7833 -3.8000999999999996],0.677,0.166,1.161,0.678,0.565,0.128,0.92,0.56,96.0,509.0
2015-03-23,Kinshasa,Congo,15.2833,-4.3001,[14.7833 -4.8001 15.7833 -3.8000999999999996],0.626,0.162,1.161,0.662,0.55,0.135,0.937,0.58,102.0,520.0
2015-03-24,Kinshasa,Congo,15.2833,-4.3001,[14.7833 -4.8001 15.7833 -3.8000999999999996],0.493,0.122,0.966,0.565,0.526,0.12,0.906,0.549,119.0,492.0
2015-03-25,Kinshasa,Congo,15.2833,-4.3001,[14.7833 -4.8001 15.7833 -3.8000999999999996],0.531,0.122,1.013,0.586,0.546,0.124,0.948,0.566,111.0,514.0
2015-03-26,Kinshasa,Congo,15.2833,-4.3001,[14.7833 -4.8001 15.7833 -3.8000999999999996],0.531,0.122,1.013,0.587,0.541,0.12,0.923,0.561,112.0,491.0
2015-03-27,Kinshasa,Congo,15.2833,-4.3001,[14.7833 -4.8001 15.7833 -3.8000999999999996],0.531,0.122,1.013,0.586,0.534,0.134,0.898,0.546,114.0,523.0
2015-03-28,Kinshasa,Congo,15.2833,-4.3001,[14.7833 -4.8001 15.7833 -3.8000999999999996],0.543,0.245,1.013,0.666,0.54,0.174,0.928,0.58,107.0,503.0
2015-03-29,Kinshasa,Congo,15.2833,-4.3001,[14.7833 -4.8001 15.7833 -3.8000999999999996],0.651,0.271,1.161,0.728,0.527,0.169,0.944,0.582,138.0,515.0
2015-03-30,Kinshasa,Congo,15.2833,-4.3001,[14.7833 -4.8001 15.7833 -3.8000999999999996],0.664,0.271,1.161,0.763,0.544,0.194,0.971,0.608,155.0,545.0
2015-03-31,Kinshasa,Congo,15.2833,-4.3001,[14.7833 -4.8001 15.7833 -3.8000999999999996],0.668,0.28,1.161,0.774,0.545,0.207,0.971,0.619,165.0,533.0
2015-04-01,Kinshasa,Congo,15.2833,-4.3001,[14.7833 -4.8001 15.7833 -3.8000999999999996],0.725,0.332,1.188,0.822,0.558,0.214,0.979,0.619,166.0,553.0
2015-04-02,Kinshasa,Congo,15.2833,-4.3001,[14.7833 -4.8001 15.7833 -3.8000999999999996],0.725,0.332,1.188,0.822,0.591,0.228,0.979,0.628,166.0,523.0
2015-04-03,Kinshasa,Congo,15.2833,-4.3001,[14.7833 -4.8001 15.7833 -3.8000999999999996],0.725,0.332,1.188,0.822,0.621,0.267,1.016,0.665,166.0,543.0
2015-04-04,Kinshasa,Congo,15.2833,-4.3001,[14.7833 -4.8001 15.7833 -3.8000999999999996],0.725,0.441,1.028,0.794,0.627,0.29,0.996,0.673,172.0,527.0
2015-04-05,Kinshasa,Congo,15.2833,-4.3001,[14.7833 -4.8001 15.7833 -3.8000999999999996],0.694,0.361,1.028,0.76,0.629,0.279,0.998,0.671,208.0,555.0
2015-04-06,Kinshasa,Congo,15.2833,-4.3001,[14.7833 -4.8001 15.7833 -3.8000999999999996],0.701,0.381,1.038,0.763,0.69,0.319,1.032,0.712,216.0,537.0
2015-04-07,Kinshasa,Congo,15.2833,-4.3001,[14.7833 -4.8001 15.7833 -3.8000999999999996],0.701,0.333,1.036,0.741,0.691,0.319,1.029,0.708,226.0,537.0
2015-04-08,Kinshasa,Congo,15.2833,-4.3001,[14.7833 -4.8001 15.7833 -3.8000999999999996],0.758,0.464,1.118,0.807,0.72,0.36,1.069,0.735,209.0,552.0
2015-04-09,Kinshasa,Congo,15.2833,-4.3001,[14.7833 -4.8001 15.7833 -3.8000999999999996],0.758,0.464,1.095,0.8,0.707,0.352,1.057,0.726,211.0,526.0
2015-04-10,Kinshasa,Congo,15.2833,-4.3001,[14.7833 -4.8001 15.7833 -3.8000999999999996],0.754,0.464,1.095,0.8,0.679,0.349,1.065,0.725,210.0,544.0
2015-04-11,Kinshasa,Congo,15.2833,-4.3001,[14.7833 -4.8001 15.7833 -3.8000999999999996],0.703,0.382,1.036,0.764,0.685,0.322,1.05,0.724,231.0,521.0
2015-04-12,Kinshasa,Congo,15.2833,-4.3001,[14.7833 -4.8001 15.7833 -3.8000999999999996],0.694,0.361,1.026,0.717,0.655,0.282,1.043,0.686,212.0,552.0
2015-04-13,Kinshasa,Congo,15.2833,-4.3001,[14.7833 -4.8001 15.7833 -3.8000999999999996],0.618,0.361,0.967,0.685,0.634,0.28,1.041,0.675,179.0,532.0
2015-04-14,Kinshasa,Congo,15.2833,-4.3001,[14.7833 -4.8001 15.7833 -3.8000999999999996],0.694,0.381,0.967,0.675,0.665,0.283,1.043,0.674,193.0,545.0
2015-04-15,Kinshasa,Congo,15.2833,-4.3001,[14.7833 -4.8001 15.7833 -3.8000999999999996],0.604,0.35,0.967,0.635,0.616,0.254,1.027,0.644,174.0,544.0
2015-04-16,Kinshasa,Congo,15.2833,-4.3001,[14.7833 -4.8001 15.7833 -3.8000999999999996],0.549,0.341,0.873,0.6,0.598,0.239,0.977,0.644,153.0,502.0
2015-04-17,Kinshasa,Congo,15.2833,-4.3001,[14.7833 -4.8001 15.7833 -3.8000999999999996],0.549,0.341,0.9,0.606,0.596,0.247,1.008,0.644,157.0,521.0
2015-04-18,Kinshasa,Congo,15.2833,-4.3001,[14.7833 -4.8001 15.7833 -3.8000999999999996],0.55,0.341,0.933,0.612,0.569,0.231,0.967,0.618,163.0,493.0
2015-04-19,Kinshasa,Congo,15.2833,-4.3001,[14.7833 -4.8001 15.7833 -3.8000999999999996],0.54,0.283,0.952,0.582,0.543,0.204,0.938,0.591,141.0,514.0
2015-04-20,Kinshasa,Congo,15.2833,-4.3001,[14.7833 -4.8001 15.7833 -3.8000999999999996],0.547,0.293,0.873,0.585,0.566,0.191,0.919,0.594,123.0,498.0
2015-04-21,Kinshasa,Congo,15.2833,-4.3001,[14.7833 -4.8001 15.7833 -3.8000999999999996],0.508,0.269,0.856,0.572,0.552,0.191,0.909,0.575,128.0,526.0
2015-04-22,Kinshasa,Congo,15.2833,-4.3001,[14.7833 -4.8001 15.7833 -3.8000999999999996],0.585,0.341,0.934,0.663,0.579,0.21,0.967,0.608,126.0,510.0
2015-04-23,Kinshasa,Congo,15.2833,-4.3001,[14.7833 -4.8001 15.7833 -3.8000999999999996],0.566,0.319,0.934,0.639,0.542,0.194,0.917,0.582,153.0,510.0
2015-04-24,Kinshasa,Congo,15.2833,-4.3001,[14.7833 -4.8001 15.7833 -3.8000999999999996],0.607,0.35,0.952,0.697,0.556,0.215,0.949,0.611,177.0,520.0
2015-04-25,Kinshasa,Congo,15.2833,-4.3001,[14.7833 -4.8001 15.7833 -3.8000999999999996],0.703,0.376,1.245,0.845,0.583,0.214,1.044,0.681,199.0,500.0
2015-04-26,Kinshasa,Congo,15.2833,-4.3001,[14.7833 -4.8001 15.7833 -3.8000999999999996],0.775,0.394,1.306,0.909,0.592,0.245,1.089,0.733,176.0,520.0
2015-04-27,Kinshasa,Congo,15.2833,-4.3001,[14.7833 -4.8001 15.7833 -3.8000999999999996],0.775,0.394,1.306,0.909,0.601,0.232,1.114,0.739,176.0,491.0
2015-04-28,Kinshasa,Congo,15.2833,-4.3001,[14.7833 -4.8001 15.7833 -3.8000999999999996],0.775,0.394,1.306,0.909,0.624,0.234,1.141,0.763,176.0,522.0
2015-04-29,Kinshasa,Congo,15.2833,-4.3001,[14.7833 -4.8001 15.7833 -3.8000999999999996],0.763,0.385,1.345,0.917,0.63,0.241,1.172,0.777,150.0,499.0
2015-04-30,Kinshasa,Congo,15.2833,-4.3001,[14.7833 -4.8001 15.7833 -3.8000999999999996],0.807,0.443,1.417,0.946,0.666,0.242,1.191,0.791,143.0,510.0
2015-05-01,Kinshasa,Congo,15.2833,-4.3001,[14.7833 -4.8001 15.7833 -3.8000999999999996],0.781,0.402,1.417,0.931,0.686,0.229,1.235,0.825,159.0,540.0
2015-05-02,Kinshasa,Congo,15.2833,-4.3001,[14.7833 -4.8001 15.7833 -3.8000999999999996],0.931,0.51,1.516,1.066,0.787,0.27,1.315,0.893,171.0,528.0
2015-05-03,Kinshasa,Congo,15.2833,-4.3001,[14.7833 -4.8001 15.7833 -3.8000999999999996],0.931,0.51,1.526,1.073,0.819,0.29,1.35,0.926,169.0,543.0
2015-05-04,Kinshasa,Congo,15.2833,-4.3001,[14.7833 -4.8001 15.7833 -3.8000999999999996],0.84,0.328,1.504,0.985,0.824,0.277,1.429,0.935,181.0,515.0
2015-05-05,Kinshasa,Congo,15.2833,-4.3001,[14.7833 -4.8001 15.7833 -3.8000999999999996],0.861,0.385,1.589,1.05,0.821,0.264,1.447,0.951,163.0,536.0
2015-05-06,Kinshasa,Congo,15.2833,-4.3001,[14.7833 -4.8001 15.7833 -3.8000999999999996],0.861,0.347,1.526,1.018,0.815,0.252,1.47,0.951,162.0,518.0
2015-05-07,Kinshasa,Congo,15.2833,-4.3001,[14.7833 -4.8001 15.7833 -3.8000999999999996],0.936,0.347,1.7,1.196,0.88,0.272,1.602,1.026,177.0,545.0
2015-05-08,Kinshasa,Congo,15.2833,-4.3001,[14.7833 -4.8001 15.7833 -3.8000999999999996],1.054,0.347,1.847,1.27,0.893,0.272,1.664,1.051,164.0,528.0
2015-05-09,Kinshasa,Congo,15.2833,-4.3001,[14.7833 -4.8001 15.7833 -3.8000999999999996],1.046,0.294,1.806,1.208,0.893,0.26,1.684,1.07,166.0,529.0
2015-05-10,Kinshasa,Congo,15.2833,-4.3001,[14.7833 -4.8001 15.7833 -3.8000999999999996],0.847,0.151,1.611,1.073,0.86,0.245,1.638,1.04,168.0,532.0
2015-05-11,Kinshasa,Congo,15.2833,-4.3001,[14.7833 -4.8001 15.7833 -3.8000999999999996],0.84,0.151,1.567,1.05,0.842,0.218,1.536,1.008,170.0,512.0
2015-05-12,Kinshasa,Congo,15.2833,-4.3001,[14.7833 -4.8001 15.7833 -3.8000999999999996],0.84,0.151,1.567,1.05,0.854,0.26,1.575,1.036,170.0,536.0
2015-05-13,Kinshasa,Congo,15.2833,-4.3001,[14.7833 -4.8001 15.7833 -3.8000999999999996],0.84,0.151,1.567,1.05,0.904,0.259,1.614,1.043,170.0,506.0
2015-05-14,Kinshasa,Congo,15.2833,-4.3001,[14.7833 -4.8001 15.7833 -3.8000999999999996],0.84,0.13,1.611,1.052,0.896,0.263,1.695,1.054,165.0,540.0
2015-05-15,Kinshasa,Congo,15.2833,-4.3001,[14.7833 -4.8001 15.7833 -3.8000999999999996],0.808,0.123,1.529,0.997,0.914,0.274,1.712,1.079,182.0,521.0
2015-05-16,Kinshasa,Congo,15.2833,-4.3001,[14.7833 -4.8001 15.7833 -3.8000999999999996],0.808,0.123,1.476,0.998,0.879,0.275,1.707,1.08,197.0,533.0
2015-05-17,Kinshasa,Congo,15.2833,-4.3001,[14.7833 -4.8001 15.7833 -3.8000999999999996],0.618,0.117,1.294,0.883,0.875,0.28,1.643,1.058,194.0,532.0
2015-05-18,Kinshasa,Congo,15.2833,-4.3001,[14.7833 -4.8001 15.7833 -3.8000999999999996],0.603,0.117,1.294,0.878,0.829,0.265,1.655,1.045,190.0,492.0
2015-05-19,Kinshasa,Congo,15.2833,-4.3001,[14.7833 -4.8001 15.7833 -3.8000999999999996],0.645,0.272,1.374,0.964,0.817,0.285,1.653,1.047,198.0,505.0
2015-05-20,Kinshasa,Congo,15.2833,-4.3001,[14.7833 -4.8001 15.7833 -3.8000999999999996],0.795,0.266,1.611,1.042,0.876,0.313,1.725,1.088,217.0,477.0
2015-05-21,Kinshasa,Congo,15.2833,-4.3001,[14.7833 -4.8001 15.7833 -3.8000999999999996],0.792,0.265,1.642,1.09,0.928,0.337,1.741,1.104,203.0,500.0
2015-05-22,Kinshasa,Congo,15.2833,-4.3001,[14.7833 -4.8001 15.7833 -3.8000999999999996],0.802,0.294,1.505,0.935,0.874,0.295,1.663,1.022,197.0,485.0
2015-05-23,Kinshasa,Congo,15.2833,-4.3001,[14.7833 -4.8001 15.7833 -3.8000999999999996],0.834,0.304,1.505,0.958,0.906,0.336,1.739,1.07,196.0,514.0
2015-05-24,Kinshasa,Congo,15.2833,-4.3001,[14.7833 -4.8001 15.7833 -3.8000999999999996],0.834,0.344,1.549,1.013,0.944,0.351,1.748,1.089,168.0,499.0
2015-05-25,Kinshasa,Congo,15.2833,-4.3001,[14.7833 -4.8001 15.7833 -3.8000999999999996],0.918,0.38,1.713,1.155,0.961,0.365,1.781,1.125,155.0,504.0
2015-05-26,Kinshasa,Congo,15.2833,-4.3001,[14.7833 -4.8001 15.7833 -3.8000999999999996],0.991,0.38,1.796,1.201,0.999,0.399,1.812,1.164,172.0,508.0
2015-05-27,Kinshasa,Congo,15.2833,-4.3001,[14.7833 -4.8001 15.7833 -3.8000999999999996],0.991,0.38,1.796,1.208,1.109,0.436,1.91,1.244,174.0,488.0
2015-05-28,Kinshasa,Congo,15.2833,-4.3001,[14.7833 -4.8001 15.7833 -3.8000999999999996],0.991,0.38,1.796,1.208,1.184,0.481,2.005,1.311,174.0,513.0
2015-05-29,Kinshasa,Congo,15.2833,-4.3001,[14.7833 -4.8001 15.7833 -3.8000999999999996],0.991,0.38,1.796,1.208,1.247,0.502,2.04,1.34,174.0,484.0
2015-05-30,Kinshasa,Congo,15.2833,-4.3001,[14.7833 -4.8001 15.7833 -3.8000999999999996],1.165,0.529,1.829,1.315,1.384,0.625,2.367,1.619,155.0,516.0
2015-05-31,Kinshasa,Congo,15.2833,-4.3001,[14.7833 -4.8001 15.7833 -3.8000999999999996],1.285,0.654,1.96,1.427,1.526,0.742,2.756,1.808,144.0,495.0
2015-06-01,Kinshasa,Congo,15.2833,-4.3001,[14.7833 -4.8001 15.7833 -3.8000999999999996],1.303,0.672,2.04,1.463,1.603,0.81,2.933,1.897,131.0,510.0
2015-06-02,Kinshasa,Congo,15.2833,-4.3001,[14.7833 -4.8001 15.7833 -3.8000999999999996],1.337,0.702,2.112,1.483,1.866,0.998,3.088,2.087,134.0,539.0
2015-06-03,Kinshasa,Congo,15.2833,-4.3001,[14.7833 -4.8001 15.7833 -3.8000999999999996],1.357,0.713,2.35,1.573,2.081,1.135,3.183,2.22,121.0,528.0
2015-06-04,Kinshasa,Congo,15.2833,-4.3001,[14.7833 -4.8001 15.7833 -3.8000999999999996],1.303,0.802,2.524,1.615,2.204,1.235,3.426,2.37,109.0,542.0
2015-06-05,Kinshasa,Congo,15.2833,-4.3001,[14.7833 -4.8001 15.7833 -3.8000999999999996],1.337,0.802,2.42,1.647,2.249,1.289,3.438,2.434,119.0,515.0
2015-06-06,Kinshasa,Congo,15.2833,-4.3001,[14.7833 -4.8001 15.7833 -3.8000999999999996],1.767,1.232,2.799,2.028,2.441,1.509,3.581,2.636,92.0,536.0
2015-06-07,Kinshasa,Congo,15.2833,-4.3001,[14.7833 -4.8001 15.7833 -3.8000999999999996],1.767,1.32,2.668,1.976,2.409,1.524,3.569,2.605,102.0,520.0
2015-06-08,Kinshasa,Congo,15.2833,-4.3001,[14.7833 -4.8001 15.7833 -3.8000999999999996],1.899,1.362,2.779,2.161,2.467,1.54,3.611,2.67,133.0,550.0